When you browse on this site, cookies collect data to enhance your experience and personalize the content and advertising you see.
Visit our Privacy Policy to learn more. By continuing to use the site, you agree to this use of cookies and data.
  • In Hungary
  • List of Countries
  • For 7 days
  • Water Temperature
  • Satellite Maps
  • Weather Map
  • News
  • Weather Widgets
  • user-avatar
    Login

    Hourly Weather Badacsonytomaj

    Today, 21 February, Thursday

    Time Temperature Precipitation Wind Pressure Humidity
    00:00 +7°C° 0 mm 1 mps 759 mmHg 66%
    01:00 +7°C° 0 mm 1 mps 759 mmHg 68%
    02:00 +6°C° 0 mm 1 mps 759 mmHg 70%
    03:00 +6°C° 0 mm 1 mps 759 mmHg 73%
    04:00 +6°C° 0 mm 1 mps 759 mmHg 75%
    05:00 +6°C° 0 mm 1 mps 759 mmHg 78%
    06:00 +5°C° 0 mm 1 mps 760 mmHg 80%
    07:00 +5°C° 0 mm 1 mps 760 mmHg 82%
    08:00 +7°C° 0 mm 1 mps 760 mmHg 75%
    09:00 +8°C° 0 mm 1 mps 760 mmHg 68%
    10:00 +9°C° 0 mm 2 mps 760 mmHg 62%
    11:00 +10°C° 0 mm 2 mps 760 mmHg 58%
    12:00 +11°C° 0 mm 3 mps 760 mmHg 55%
    13:00 +12°C° 0 mm 3 mps 759 mmHg 51%
    14:00 +12°C° 0 mm 3 mps 759 mmHg 52%
    15:00 +12°C° 0 mm 3 mps 759 mmHg 52%
    16:00 +13°C° 0 mm 2 mps 758 mmHg 52%
    17:00 +12°C° 0 mm 2 mps 758 mmHg 57%
    18:00 +10°C° 0 mm 2 mps 758 mmHg 61%
    19:00 +10°C° 0 mm 1 mps 758 mmHg 66%
    20:00 +10°C° 0.1 mm 1 mps 758 mmHg 68%
    21:00 +9°C° 0.1 mm 2 mps 758 mmHg 70%
    22:00 +8°C° 0.1 mm 2 mps 758 mmHg 72%
    23:00 +8°C° 0.2 mm 2 mps 758 mmHg 74%

    Tomorrow, 22 February, Friday

    Time Temperature Precipitation Wind Pressure Humidity
    00:00 +8°C° 0.2 mm 2 mps 758 mmHg 76%
    01:00 +8°C° 0.2 mm 2 mps 758 mmHg 79%
    02:00 +8°C° 0 mm 2 mps 757 mmHg 78%
    03:00 +8°C° 0 mm 2 mps 757 mmHg 78%
    04:00 +8°C° 0 mm 2 mps 757 mmHg 78%
    05:00 +8°C° 0.3 mm 2 mps 756 mmHg 81%
    06:00 +8°C° 0.3 mm 2 mps 756 mmHg 83%
    07:00 +7°C° 0.3 mm 2 mps 756 mmHg 85%
    08:00 +7°C° 0.5 mm 4 mps 756 mmHg 84%
    09:00 +7°C° 0.5 mm 5 mps 756 mmHg 82%
    10:00 +8°C° 0.5 mm 6 mps 756 mmHg 80%
    11:00 +9°C° 0 mm 7 mps 756 mmHg 76%
    12:00 +9°C° 0 mm 8 mps 756 mmHg 72%
    13:00 +10°C° 0 mm 9 mps 756 mmHg 68%
    14:00 +10°C° 0 mm 9 mps 756 mmHg 65%
    15:00 +10°C° 0 mm 9 mps 757 mmHg 61%
    16:00 +10°C° 0 mm 9 mps 757 mmHg 57%
    17:00 +7°C° 0 mm 9 mps 758 mmHg 58%
    18:00 +5°C° 0 mm 9 mps 760 mmHg 60%
    19:00 +2°C° 0 mm 9 mps 761 mmHg 61%
    20:00 +2°C° 0 mm 8 mps 762 mmHg 60%
    21:00 +2°C° 0 mm 7 mps 763 mmHg 59%
    22:00 +1°C° 0 mm 6 mps 764 mmHg 58%
    23:00 -1°C° 0 mm 6 mps 765 mmHg 58%

    Day after tomorrow, 23 February, Saturday

    Time Temperature Precipitation Wind Pressure Humidity
    00:00 -1°C° 0 mm 5 mps 765 mmHg 59%
    01:00 -1°C° 0 mm 4 mps 766 mmHg 59%
    02:00 -2°C° 0 mm 4 mps 766 mmHg 59%
    03:00 -1°C° 0 mm 3 mps 766 mmHg 58%
    04:00 -2°C° 0 mm 3 mps 766 mmHg 58%
    05:00 -2°C° 0 mm 3 mps 766 mmHg 56%
    06:00 -2°C° 0 mm 3 mps 767 mmHg 55%
    07:00 -2°C° 0 mm 2 mps 767 mmHg 53%
    08:00 -1°C° 0 mm 3 mps 767 mmHg 49%
    09:00 -1°C° 0 mm 3 mps 768 mmHg 45%
    10:00 0°C° 0 mm 3 mps 768 mmHg 41%
    11:00 +1°C° 0 mm 3 mps 768 mmHg 38%
    12:00 +1°C° 0 mm 4 mps 768 mmHg 35%
    13:00 +1°C° 0 mm 4 mps 767 mmHg 32%
    14:00 +1°C° 0 mm 4 mps 767 mmHg 31%
    15:00 +1°C° 0 mm 4 mps 767 mmHg 31%
    16:00 +1°C° 0 mm 4 mps 767 mmHg 30%
    17:00 +1°C° 0 mm 3 mps 767 mmHg 35%
    18:00 0°C° 0 mm 3 mps 768 mmHg 39%
    19:00 -1°C° 0 mm 2 mps 768 mmHg 43%
    20:00 -1°C° 0 mm 2 mps 768 mmHg 43%
    21:00 +1°C° 0 mm 1 mps 768 mmHg 44%
    22:00 0°C° 0 mm 1 mps 768 mmHg 44%
    23:00 0°C° 0 mm 1 mps 769 mmHg 44%

    24 February, Sunday

    Time Temperature Precipitation Wind Pressure Humidity
    00:00 0°C° 0 mm 1 mps 769 mmHg 43%
    01:00 0°C° 0 mm 1 mps 769 mmHg 43%
    02:00 -1°C° 0 mm 0 mps 768 mmHg 43%
    03:00 -1°C° 0 mm 0 mps 768 mmHg 42%
    04:00 -2°C° 0 mm 0 mps 768 mmHg 42%
    05:00 -2°C° 0 mm 0 mps 768 mmHg 42%
    06:00 -2°C° 0 mm 0 mps 768 mmHg 42%
    07:00 -2°C° 0 mm 0 mps 768 mmHg 41%
    08:00 0°C° 0 mm 1 mps 768 mmHg 37%
    09:00 +2°C° 0 mm 1 mps 768 mmHg 32%
    10:00 +2°C° 0 mm 2 mps 768 mmHg 27%
    11:00 +3°C° 0 mm 2 mps 768 mmHg 25%
    12:00 +4°C° 0 mm 2 mps 767 mmHg 23%
    13:00 +5°C° 0 mm 2 mps 767 mmHg 21%
    14:00 +6°C° 0 mm 2 mps 767 mmHg 23%
    15:00 +6°C° 0 mm 2 mps 766 mmHg 25%
    16:00 +6°C° 0 mm 2 mps 766 mmHg 28%
    17:00 +5°C° 0 mm 2 mps 766 mmHg 32%
    18:00 +4°C° 0 mm 1 mps 766 mmHg 37%
    19:00 +3°C° 0 mm 1 mps 766 mmHg 42%
    20:00 +3°C° 0 mm 1 mps 766 mmHg 44%
    21:00 +3°C° 0 mm 1 mps 766 mmHg 46%
    22:00 +3°C° 0 mm 1 mps 766 mmHg 48%
    23:00 +3°C° 0 mm 1 mps 765 mmHg 52%

    25 February, Monday

    Time Temperature Precipitation Wind Pressure Humidity
    00:00 +2°C° 0 mm 2 mps 765 mmHg 56%
    01:00 +2°C° 0 mm 2 mps 765 mmHg 60%
    02:00 +1°C° 0 mm 3 mps 764 mmHg 64%
    03:00 +1°C° 0 mm 3 mps 764 mmHg 68%
    04:00 +2°C° 0 mm 3 mps 763 mmHg 72%
    05:00 +1°C° 0 mm 4 mps 763 mmHg 72%
    06:00 +2°C° 0 mm 5 mps 763 mmHg 73%
    07:00 +2°C° 0 mm 6 mps 762 mmHg 73%
    08:00 +3°C° 0 mm 7 mps 762 mmHg 69%
    09:00 +5°C° 0 mm 8 mps 763 mmHg 65%
    10:00 +6°C° 0 mm 9 mps 763 mmHg 62%
    11:00 +7°C° 0 mm 9 mps 762 mmHg 58%
    12:00 +7°C° 0 mm 9 mps 762 mmHg 54%
    13:00 +8°C° 0 mm 9 mps 762 mmHg 51%
    14:00 +8°C° 0 mm 9 mps 762 mmHg 50%
    15:00 +7°C° 0 mm 9 mps 761 mmHg 49%
    16:00 +7°C° 0 mm 9 mps 761 mmHg 48%
    17:00 +6°C° 0 mm 9 mps 761 mmHg 50%
    18:00 +5°C° 0 mm 8 mps 761 mmHg 52%
    19:00 +4°C° 0 mm 8 mps 762 mmHg 54%
    20:00 +4°C° 0 mm 8 mps 762 mmHg 54%
    21:00 +2°C° 0 mm 8 mps 763 mmHg 54%
    22:00 +2°C° 0 mm 8 mps 763 mmHg 55%
    23:00 +2°C° 0 mm 8 mps 763 mmHg 57%

    26 February, Tuesday

    Time Temperature Precipitation Wind Pressure Humidity
    00:00 +2°C° 0 mm 7 mps 763 mmHg 58%
    01:00 +2°C° 0 mm 7 mps 763 mmHg 60%
    02:00 +1°C° 0 mm 6 mps 763 mmHg 62%
    03:00 +1°C° 0 mm 6 mps 763 mmHg 64%
    04:00 +1°C° 0 mm 5 mps 763 mmHg 66%
    05:00 +1°C° 0 mm 5 mps 763 mmHg 67%
    06:00 0°C° 0 mm 5 mps 763 mmHg 69%
    07:00 0°C° 0 mm 4 mps 763 mmHg 70%
    08:00 +2°C° 0 mm 5 mps 763 mmHg 63%
    09:00 +3°C° 0 mm 5 mps 763 mmHg 56%
    10:00 +5°C° 0 mm 6 mps 763 mmHg 48%
    11:00 +7°C° 0 mm 6 mps 762 mmHg 45%
    12:00 +8°C° 0 mm 6 mps 762 mmHg 41%
    13:00 +9°C° 0 mm 6 mps 761 mmHg 37%
    14:00 +9°C° 0 mm 6 mps 761 mmHg 37%
    15:00 +9°C° 0 mm 6 mps 760 mmHg 36%
    16:00 +9°C° 0 mm 5 mps 760 mmHg 36%
    17:00 +8°C° 0 mm 4 mps 760 mmHg 41%
    18:00 +7°C° 0 mm 3 mps 760 mmHg 46%
    19:00 +6°C° 0 mm 2 mps 760 mmHg 51%
    20:00 +6°C° 0 mm 2 mps 760 mmHg 52%
    21:00 +5°C° 0 mm 2 mps 760 mmHg 53%
    22:00 +5°C° 0 mm 2 mps 760 mmHg 54%
    23:00 +5°C° 0 mm 2 mps 759 mmHg 56%
    Show more